WH7F Weather Reports


time (UTC)temp
C
wind
direction
speed
KPH
gust
KPH
rain 1hr
cm
rain 24hr
cm
rain mn
cm
humidity
%
barometer
mb
20260510175517 38 209 1.6 3.2 0.00 0.20 0.00 41 1013.6
20260510174522 38 218 1.6 6.4 0.00 0.20 0.00 44 1013.6
20260510173519 38 139 1.6 3.2 0.00 0.20 0.00 44 1013.5
20260510172518 37 157 0.0 3.2 0.00 0.20 0.00 46 1013.6
20260510171521 37 23 1.6 3.2 0.00 0.20 0.00 52 1013.6
20260510170522 36 144 1.6 3.2 0.00 0.20 0.00 67 1013.8
20260510165519 35 142 1.6 3.2 0.00 0.20 0.00 72 1013.8
20260510164516 34 90 1.6 3.2 0.00 0.20 0.00 78 1014.0
20260510163543 33 126 1.6 6.4 0.00 0.20 0.00 78 1014.1
20260510162602 33 93 0.0 3.2 0.00 0.20 0.00 79 1014.1
20260510161526 32 94 1.6 3.2 0.00 0.20 0.00 82 1014.2
20260510160536 31 90 0.0 1.6 0.00 0.20 0.00 85 1014.2
20260510155523 29 78 0.0 3.2 0.00 0.20 0.00 86 1014.2
20260510154520 28 97 1.6 3.2 0.00 0.20 0.00 87 1014.2
20260510153519 27 34 1.6 4.8 0.00 0.20 0.00 87 1014.2
20260510152522 27 32 1.6 4.8 0.00 0.20 0.00 88 1014.3
20260510151521 26 30 1.6 3.2 0.00 0.20 0.00 88 1014.2
20260510150520 26 71 1.6 3.2 0.00 0.20 0.00 88 1013.9
20260510145516 25 52 0.0 3.2 0.00 0.20 0.00 89 1013.8
20260510144522 24 68 1.6 1.6 0.00 0.20 0.00 91 1013.7
20260510143521 23 44 1.6 3.2 0.00 0.20 0.00 91 1013.5
20260510142542 23 68 1.6 3.2 0.00 0.20 0.00 90 1013.5
20260510141516 22 58 1.6 3.2 0.00 0.20 0.00 92 1013.6
20260510140521 22 68 1.6 3.2 0.00 0.20 0.00 93 1013.7
20260510135519 21 52 0.0 3.2 0.00 0.20 0.00 95 1013.7
20260510134540 20 0.0 0.0 0.00 0.20 0.00 96 1013.8
20260510133525 17 0.0 0.0 0.00 0.20 0.00 97 1013.6
20260510132523 15 112 0.0 0.0 0.00 0.20 0.00 98 1013.8
20260510131520 15 241 0.0 1.6 0.00 0.20 0.00 98 1014.0
20260510130515 14 8 0.0 1.6 0.00 0.20 0.00 98 1014.0
20260510125523 13 0.0 0.0 0.00 0.20 0.00 98 1014.1
20260510124522 13 33 0.0 1.6 0.00 0.20 0.00 99 1014.0
20260510123528 13 52 0.0 3.2 0.00 0.20 0.00 99 1014.0
20260510122517 13 0.0 0.0 0.00 0.20 0.00 98 1013.9
20260510121522 13 0.0 0.0 0.00 0.20 0.00 98 1013.9
20260510120519 12 0.0 0.0 0.00 0.20 0.00 99 1013.8
20260510115518 12 0.0 0.0 0.00 0.20 0.00 99 1013.8
20260510114522 12 22 0.0 0.0 0.00 0.20 0.00 98 1013.8
20260510113530 12 0.0 0.0 0.00 0.20 0.00 98 1013.6
20260510112539 11 0.0 0.0 0.00 0.20 0.00 98 1013.4
20260510111516 12 0.0 0.0 0.00 0.20 0.00 98 1013.2
20260510110521 12 0.0 0.0 0.00 0.20 0.00 97 1012.9
20260510105538 13 0.0 0.0 0.00 0.20 0.00 97 1012.7
20260510104521 16 0.0 0.0 0.00 0.20 0.00 97 1012.7
20260510103530 10 0.0 0.0 0.00 0.20 0.00 97 1012.4
20260510102521 10 0.0 0.0 0.00 0.20 0.00 97 1012.2
20260510101519 10 0.0 0.0 0.00 0.20 0.00 97 1012.3
20260510100517 10 0.0 0.0 0.00 0.20 0.00 97 1012.4
20260510095522 11 0.0 0.0 0.00 0.20 0.00 98 1012.3
20260510094523 11 0.0 0.0 0.00 0.20 0.00 98 1012.4
20260510093518 11 0.0 0.0 0.00 0.20 0.00 97 1012.2
20260510092517 11 0.0 0.0 0.00 0.20 0.00 97 1012.2
20260510091522 11 0.0 0.0 0.00 0.20 0.00 97 1012.1
20260510090519 11 0.0 0.0 0.00 0.20 0.00 97 1011.9
20260510085524 11 0.0 0.0 0.00 0.20 0.00 97 1011.8
20260510084523 11 0.0 0.0 0.00 0.20 0.00 98 1011.7
20260510083522 10 0.0 0.0 0.00 0.20 0.00 97 1011.6
20260510082519 10 0.0 0.0 0.00 0.20 0.00 97 1011.4
20260510081516 10 0.0 0.0 0.00 0.20 0.00 97 1011.2
20260510080523 11 0.0 0.0 0.00 0.20 0.00 97 1011.0
20260510075522 11 0.0 0.0 0.00 0.20 0.00 97 1011.1
20260510074519 11 0.0 0.0 0.00 0.20 0.00 96 1011.0
20260510073516 11 0.0 0.0 0.00 0.20 0.00 97 1010.9
20260510072523 11 0.0 0.0 0.00 0.20 0.00 97 1010.9
20260510071520 11 0.0 0.0 0.00 0.20 0.00 97 1010.8
20260510070543 11 0.0 0.0 0.00 0.20 0.00 97 1010.9
20260510065530 11 0.0 0.0 0.00 0.20 0.00 97 1010.7
20260510064542 11 0.0 0.0 0.00 0.20 0.00 97 1010.8
20260510063520 11 0.0 0.0 0.00 0.20 0.00 97 1010.7
20260510062537 11 0.0 0.0 0.00 0.20 0.00 97 1010.7
20260510061524 11 0.0 0.0 0.00 0.20 0.00 97 1010.6
20260510060523 11 0.0 0.0 0.00 0.20 0.00 97 1010.6
20260510055518 12 0.0 0.0 0.00 0.20 0.00 96 1010.6
20260510054517 12 0.0 0.0 0.00 0.20 0.00 97 1010.7
20260510053522 12 0.0 0.0 0.00 0.20 0.00 96 1010.7
20260510052521 12 0.0 0.0 0.00 0.20 0.00 96 1010.8
20260510051526 12 0.0 0.0 0.00 0.20 0.00 96 1010.8
20260510050523 12 0.0 0.0 0.00 0.20 0.00 96 1011.0
20260510045542 12 0.0 0.0 0.00 0.20 0.00 96 1011.0
20260510044539 12 0.0 0.0 0.00 0.20 0.00 96 1010.8
20260510043538 12 0.0 0.0 0.00 0.20 0.00 96 1010.9
20260510042524 12 0.0 0.0 0.00 0.20 0.00 96 1010.8
20260510041530 12 0.0 0.0 0.00 0.20 0.00 96 1010.8
20260510040539 12 0.0 0.0 0.00 0.20 0.00 96 1010.7
20260510035516 13 0.0 0.0 0.00 0.20 0.20 96 1010.7
20260510034543 13 0.0 0.0 0.00 0.20 0.20 96 1010.8
20260510033520 13 0.0 0.0 0.00 0.20 0.20 96 1010.5
20260510032543 13 0.0 0.0 0.00 0.20 0.20 96 1010.6
20260510031532 13 0.0 0.0 0.00 0.20 0.20 96 1010.5
20260510030523 13 0.0 0.0 0.00 0.20 0.20 96 1010.4
20260510025520 13 0.0 0.0 0.00 0.20 0.20 96 1010.4
20260510024537 13 0.0 0.0 0.00 0.20 0.20 96 1010.5
20260510023558 14 0.0 0.0 0.00 0.20 0.20 96 1010.4
20260510022543 14 0.0 0.0 0.00 0.20 0.20 96 1010.4
20260510021520 14 0.0 0.0 0.00 0.20 0.20 95 1010.4
20260510020537 14 0.0 0.0 0.00 0.20 0.20 95 1010.4
20260510015522 14 0.0 0.0 0.00 0.20 0.20 95 1010.2
20260510014541 14 0.0 0.0 0.00 0.20 0.20 95 1010.2
20260510013528 15 0.0 0.0 0.00 0.20 0.20 95 1010.0
20260510012516 15 0.0 0.0 0.00 0.20 0.20 95 1010.0
20260510011522 15 0.0 0.0 0.00 0.20 0.20 94 1009.9
20260510010539 15 0.0 0.0 0.00 0.20 0.20 94 1009.8
20260510005518 15 0.0 0.0 0.00 0.20 0.20 95 1009.8
20260510004519 15 0.0 0.0 0.00 0.20 0.20 95 1009.7
20260510003529 15 0.0 0.0 0.00 0.20 0.20 95 1009.5
20260510002520 15 0.0 0.0 0.00 0.20 0.20 95 1009.5
20260510001535 16 0.0 0.0 0.15 0.20 0.20 94 1009.6
20260510000523 16 0.0 1.6 0.15 0.20 0.20 94 1009.4
20260509235516 16 0.0 0.0 0.15 0.20 0.20 94 1009.3
20260509234524 16 128 0.0 0.0 0.15 0.20 0.20 94 1009.2
20260509233658 17 0.0 0.0 0.15 0.20 0.20 92 1009.2
20260509232522 18 0.0 0.0 0.15 0.20 0.20 90 1009.0
20260509231539 19 96 0.0 0.0 0.00 0.08 0.08 89 1009.2
20260509230559 20 136 0.0 1.6 0.00 0.08 0.08 89 1009.1
20260509225515 20 95 0.0 4.8 0.00 0.08 0.08 89 1009.1
20260509224524 20 53 0.0 0.0 0.00 0.08 0.08 89 1009.1
20260509223515 21 185 1.6 3.2 0.00 0.08 0.08 88 1009.2
20260509222516 21 200 1.6 6.4 0.00 0.08 0.08 89 1009.1
20260509221515 21 210 0.0 6.4 0.00 0.08 0.08 89 1009.2
20260509220520 21 198 0.0 3.2 0.00 0.08 0.08 89 1009.1
20260509215517 22 48 0.0 1.6 0.00 0.08 0.08 88 1009.1
20260509214516 23 140 0.0 4.8 0.00 0.08 0.08 87 1009.0
20260509213517 26 157 1.6 6.4 0.00 0.08 0.08 86 1009.1
20260509212520 29 292 0.0 3.2 0.00 0.08 0.08 84 1009.0
20260509211538 29 187 1.6 4.8 0.00 0.08 0.08 84 1009.0
20260509210524 28 207 1.6 4.8 0.00 0.08 0.08 85 1008.8
20260509205517 28 164 1.6 8.0 0.00 0.08 0.08 83 1008.9
20260509204520 28 52 1.6 4.8 0.00 0.08 0.08 83 1009.0
20260509203517 27 111 0.0 6.4 0.00 0.08 0.08 83 1008.9
20260509202522 25 42 0.0 1.6 0.00 0.08 0.08 86 1009.1
20260509201517 21 0.0 0.0 0.00 0.08 0.08 89 1009.3
20260509200524 20 29 0.0 0.0 0.00 0.08 0.08 89 1009.4
20260509195557 20 30 0.0 3.2 0.00 0.08 0.08 89 1009.5
20260509194522 20 0.0 0.0 0.08 0.08 0.08 89 1009.5
20260509193538 20 0.0 1.6 0.08 0.08 0.08 89 1009.7
20260509192519 20 0.0 0.0 0.08 0.08 0.08 91 1009.5
20260509191517 17 77 0.0 1.6 0.08 0.08 0.08 92 1009.7
20260509190524 17 35 1.6 3.2 0.08 0.08 0.08 91 1010.1
20260509185537 18 70 0.0 0.0 0.08 0.08 0.08 89 1010.6
20260509184516 20 68 0.0 1.6 0.00 0.00 0.00 85 1010.5
20260509183517 22 227 0.0 4.8 0.00 0.00 0.00 81 1010.2
20260509182520 22 325 0.0 1.6 0.00 0.00 0.00 81 1010.3
20260509181517 22 254 1.6 1.6 0.00 0.00 0.00 80 1010.5
20260509180518 22 239 3.2 11.3 0.00 0.00 0.00 79 1010.7